Location: *
(51.0333°S, 178.4667°E)
Time: 00:49:32
(UTC+00:00)

IRIDIUM 114 - Pass Details

Date: 15 November 2019
Orbit: 776 x 779 km, 86.4° (Epoch: 12 December)

Event Time Altitude Azimuth Distance (km) Brightness Sun altitude
Rises 08:56:52 0° 185° (S) 3,307 8.5 -10.8°
Reaches altitude 10° 08:59:15 10° 184° (S) 2,373 7.7 -11.0°
Maximum altitude 09:04:35 87° 94° (E) 800 4.4 -11.6°
Enters shadow 09:09:48 10° 4° (N) 2,318 6.3 -12.1°
